Погода в Чернигове

Погода в Чернигове : погода сейчас, прогноз погоды и архив. Всё, что Вы хотите узнать о погоде в Чернигове!

Хотите узнать прогноз погоды в Чернигове? Тогда Вам сюда: Погода в Чернигове

Поиск расширенной информации на нашем сайте:

Другие новости

Новости СМИ2

Главная страница сайта

Новости сайта

03.07.2017

Напоминаем, что на нашем специализированном сайте Метеоцентр.Азия вы можете получить высокодетализированные автоматические прогнозы погоды по пунктам России, СНГ и мира в авиационном формате (включающие направление и скорость ветра, видимость, явления погоды, количество и форму облачности, нижнюю и верхнюю границу облачности).

Рекомендуем: Лечение мастита у женщин в домашних домашние лечения мастита.

Погода в Чернигове - сегодня

Время (UTC), дата Ветер
(°,м/с) 
Видим.   Явления Облачность Т
(°С)
Тd
(°С)
f(%) Тe
(°С)
Pmin
(гПа)
dP
(гПа)
Po
(мм)
O2
(г/м3)
Тmin Tmax R s Состояние
почвы
06 20.07.17 240 (ЮЗ) 20000 м    6/0 средняя, верхняя 
[Ac trans|Ci fib]
+20.6 +11.2 55 +23  1016.4  -0.2  752  280  +8.9         
09 20.07.17 180 (Ю) 20000 м    8/1 1000 м средняя, верхняя 
[Cu hum|Ac trans|Ci fib]
+25.9 +12 42 +30  1014.7  -1.4  751  274           
12 20.07.17 180 (Ю) 20000 м    10/6 1000 м кучево-дожд., средняя 
[Cb calv|As op]
+26.1 +12.9 44 +31  1013.3  -1.4  750  273           
15 20.07.17 350 (С) 10 км  гроза, ливневой дождь  10/6 1000 м кучево-дожд., средняя 
[Cb calv|As op]
+19.2 +16 82 +30  1014.1  0.5  750  279           
18 20.07.17 тихо ()   10 км  {гроза, ливн. осадки}  8/8 600 м 
[Sc]
+18.5 +16.5 88 +30  1013.6  -0.5  750  279    +28     
21 20.07.17 тихо ()   н/о  дымка  ясно 
+16.4 +15 91 +25  1013.5  -0.3  749  282           
00 21.07.17 тихо ()   н/о  дымка  ясно 
+14.3 +13.4 94 +20  1013.3  -0.3  749  284           
03 21.07.17 тихо ()   4000 м  в посл. час туман  9/8 700 м кучево-дожд., средняя 
[Cb cap|Ac trans]
+14.3 +13.6 96 +21  1013.9  0.6  750  284           
06 21.07.17 тихо ()   4000 м  дымка{ливн. осадки, туман}  10/6 600 м кучево-дожд., средняя 
[Cb cap|Ac und]
+19.2 +17.7 91 +33  1013.2  -0.4  749  278  +11.8    0.0     
09 21.07.17 тихо ()   10 км  {ливн. осадки}  8/3 1000 м средняя 
[Sc|Ac trans]
+22.2 +18.7 81 +38  1013.9  0.8  750  275           
12 21.07.17 тихо ()   20000 м  {ливн. осадки}  3/3 1000 м 
[Cu med, cong]
+28.2 +15.5 46 +38  1013  -0.6  750  271      0.0     
15 21.07.17 тихо ()   20000 м    3/3 1000 м верхняя 
[Cu med, cong|Ci fib]
+30.1 +14.8 39 +38  1011.9  -1  749  269           
18 21.07.17 тихо ()   10 км    1/1 1000 м 
[Sc diur, vesp]
+25.4 +19.7 71 +43  1012.3  0.2  749  271    +30.4  0.0     
21 21.07.17 тихо ()   н/о    ясно 
+20.1 +17.8 87 +34  1012.3  -0.2  749  277           
00 22.07.17 170 (Ю) н/о  зарница  4/0 верхняя 
[Ci fib]
+19.2 +17.7 91 +35  1011.3  -1.1  748  278           
03 22.07.17 330 (СЗ) 10 км    8/5 1000 м кучево-дожд., верхняя 
[Cb cap|Cc]
+18.8 +17.2 90 +33  1011.9  0.6  748  278           
06 22.07.17 060 (СВ) 10 км  в посл. час ливневой дождь  8/5 1000 м кучево-дожд., средняя, верхняя 
[Cb cap|Ac trans|Ci fib]
+20.6 +18.2 86 +35  1012.1  0.3  749  276  +18.5    0.7     
09 22.07.17 300 (СЗ) 10 км    8/4 1000 м кучево-дожд., средняя 
[Cb cap|Ac trans]
+23 +18.2 74 +38  1012.3  0.3  749  274           
12 22.07.17 010 (С) 10 км  слаб. ливневой дождь  10/5 1000 м кучево-дожд., средняя 
[Cb cap|As op]
+23.6 +18.6 74 +39  1012.6  0.3  749  274      0.0     
15 22.07.17 330 (СЗ) 10 км  {ливн. осадки}  9/6 1140 м кучево-дожд., средняя 
[Cb cap|As trans]
+22.8 +18.2 75 +38  1013.1  0.5  749  275           
18 22.07.17 010 (С) 10 км  {ливн. осадки}  5/5 1000 м кучево-дожд. 
[Cb cap]
+19.6 +16.1 80 +32  1015.1  1.8  751  279    +24.4  0.5     
21 22.07.17 тихо ()   н/о    3/0 средняя 
[Ac trans]
+16.7 +14.1 85 +24  1015.8  0.5  751  282           
00 23.07.17 тихо ()   н/о    ясно 
+13.5 +11.6 88 +17  1016.5  0.5  752  286           
03 23.07.17 020 (С) 10 км    ясно 
+13.8 +12.1 89 +19  1017  0.6  752  286           
06 23.07.17 360 (С) 20000 м    ясно 
+19 +14 73 +27  1017.4  0.6  752  281  +12.3         
Время (UTC), дата Ветер
(°,м/с) 
Видим.   Явления Облачность Т
(°С)
Тd
(°С)
f(%) Тe
(°С)
Pmin
(гПа)
dP
(гПа)
Po
(мм)
O2
(г/м3)
Тmin Tmax R s Состояние
почвы

Для получения пояснительной информации подведите курсор к названию столбца.

ПОГОДА в Чернигове - архив

Всё, что Вы хотите узнать о погоде в Чернигове - удобно и подробно!

Выберите нужную дату (начиная с 1 января 2015* года) и нажмите кнопку "Найти".
Будут отображены архивные сводки погоды по пункту Чернигов, начиная с указанной даты.


Отображать данные в формате CSV (для использования в таблицах Excel)


Внимание! Наш архив погоды предназначен исключительно для личного некоммерческого использования в познавательных целях. Если Вам необходимы официальные справки о состоянии погоды (для производственных, юридических, коммерческих и т.п. целей), обращайтесь в органы Росгидромета.

*Примечание: данная дата относится к архиву по метеостанциям СССР (Россия, СНГ, Балтия).
Архив по метеостанциям Зарубежной Европы и Азии (кроме Китая) хранится 10 дней, по другим регионам земного шара (Китай, Африка, Америка, Австралия, Океания) - 1 день.

Чернигов - район местоположения метеостанции


Название, широта, долгота, высота метеостанции:
Чернигов 51.5°ш. 31.2°д. 141 м над ур. моря [Украина]

Дополнительная информация

В oтличие oт бoльшинства пoгoдных сайтoв мы публикуем пoдрoбную метеoинфoрмацию в детальнoм прoфессиoнальнoм фoрмате.

Характеристики температуры и влажнoсти вoздуха измеряются на высoте 2 м в тени вдали oт зданий и деревьев.
Скoрoсть ветра измеряется на высoте 10 м (на урoвне рoста челoвека скoрoсть ветра ниже в 1.5-2 раза). Если метеoстанция нахoдится в гoрoде или в лесу, тo скoрoсть ветра занижена на 2-4 м/с пo сравнению с oткрытым местoм. Скoрoсть ветра над акватoриями крупных рек и oзёр, а также на вершинах хoлмoв на 2-5 м/с выше, чем в oбычных услoвиях.
Атмoсфернoе давление в разных тoчках местнoсти мoжет значительнo oтличаться oт давления на метеoстанции, в зависимoсти oт услoвий рельефа (при пoдъёме на 10 м давление пoнижается примернo на 1 мм рт.ст.).